Location: Newark
(45.2500°N, 7.5833°E)
Time: 20:59:01
(UTC+00:00)

SR - Pass Details

Date: 04 February 2020
Orbit: 575 x 880 km, 66.7° (Epoch: 26 February)

Event Time Altitude Azimuth Distance (km) Brightness Sun altitude
Exits shadow 04:44:54 47° 242° (WSW) 992 ? -21.8°
Drops below altitude 10° 04:49:32 10° 173° (S) 2,171 ? -21.0°
Sets 04:51:49 0° 167° (SSE) 3,035 ? -20.6°
